SCP
0 0 0 0 0 0 0 0 0 0 0 0 0 0 0 0 0 0 0 0 0 0 0 0 0 0 0 0 0 0 0 0 0 0 0 0 0 0 0 0 0 0 0
0 0 0 0 0 0 0 0 0 0 0 0 0 0 0 0 0 0 0 0 0 0 0 0 0 0 0 0 0 0 0 0 0 0 0 0 0 0 0 0 0 0 0
0 0 0 0 0 0 0 0 0 0 0 0 0 0 0 0 0 0 0 0 0 0 0 0 0 0 0 0 0 0 0 0 0 0 0 0 0 0 0 0 0 0 0
0 0 0 0 0 0 0 0 0 0 0 0 0 0 0 0 0 0 0 0 0 0 0 0 0 0 0 0 0 0 0 0 0 0 0 0 0 0 0 0 0 0 0
0 0 0 0 0 0 0 0 0 0 0 0 0 0 0 0 0 0 0 0 0 0 0 0 0 0 0 0 0 0 0 0 0 0 0 0 0 0 0 0 0 0 0
0 0 0 0 0 0 0 0 0 0 0 0 0 0 0 0 0 0 0 0 0 0 0 0 0 0 0 0 0 0 0 0 0 0 0 0 0 0 0 0 0 0 0
0 0 0 0 0 0 0 0 0 0 0 0 0 0 0 0 0 0 0 0 0 0 0 0 0 0 0 0 0 0 0 0 0 0 0 0 0 0 0 0 0 0 0
0 0 0 0 0 0 0 0 0 0 0 0 0 0 0 0 0 0 0 0 0 0 0 0 0 0 0 0 0 0 0 0 0 0 0 0 0 0 0 0 0 0 0
0 0 0 0 0 0 0 0 0 0 0 0 0 0 0 0 0 0 0 0 0 0 0 0 0 0 0 0 0 0 0 0 0 0 0 0 0 0 0 0 0 0 0
0 0 0 0 0 0 0 0 0 0 0 0 0 0 0 0 0 0 0 0 0 0 0 0 0 0 0 0 0 0 0 0 0 0 0 0 0 0 0 0 0 0 0
0 0 0 0 0 0 0 0 0 0 0 0 0 0 0 0 0 0 0 0 0 0 0 0 0 0 0 0 0 0 0 0 0 0 0 0 0 0 0 0 0 0 0
0 0 0 0 0 0 0 0 0 0 0 0 0 0 0 0 0 0 0 0 0 0 0 0 0 0 0 0 0 0 0 0 0 0 0 0 0 0 0 0 0 0 0
0 0 0 0 0 0 0 0 0 0 0 0 0 0 0 0 0 0 0 0 0 0 0 0 0 0 0 0 0 0 0 0 0 0 0 0 0 0 0 0 0 0 0
0 0 0 0 0 0 0 0 0 0 0 0 0 0 0 0 0 0 0 0 0 0 0 0 0 0 0 0 0 0 0 0 0 0 0 0 0 0 0 0 0 0 0
0 0 0 0 0 0 0 0 0 0 0 0 0 0 0 0 0 0 0 0 0 0 0 0 0 0 0 0 0 0 0 0 0 0 0 0 -0 0 0 0 0 0 0
0 0 0 0 0 0 0 0 0 0 0 0 0 0 0 0 0 0 0 0 0 0 0 0 0 0 0 0 0 0 0 0 0 0 0 0 0 -0 0 0 0 0 0
0 0 0 0 0 0 0 0 0 0 0 0 0 0 0 0 0 0 0 0 0 0 0 0 0 0 0 0 0 0 0 0 0 0 0 0 0 0 0 0 0 0 0
0 0 0 0 0 0 0 0 0 0 0 0 0 0 0 0 0 0 0 0 0 0 0 0 0 0 0 0 0 0 0 0 0 0 0 0 0 -0 0 0 0 0 0
0 0 0 0 0 0 0 0 0 0 0 0 0 0 0 0 0 0 0 0 0 0 0 0 0 0 0 0 0 0 0 0 0 0 0 0 0 0 0 0 0 0 0
0 0 0 0 0 0 0 0 0 0 0 0 0 0 0 0 0 0 0 0 0 0 0 0 0 0 0 0 0 0 0 0 0 0 0 0 0 0 0 0 0 0 0
0 0 0 0 0 0 0 0 0 0 0 0 0 0 0 0 0 0 0 0 0 0 0 0 0 0 0 0 0 0 0 0 0 0 0 0 0 0 0 0 0 0 0
0 0 0 0 0 0 0 0 0 0 0 0 0 0 0 0 0 0 0 0 0 0 0 0 0 0 0 0 0 0 0 0 0 0 0 0 0 0 0 0 0 0 0
0 0 0 0 0 0 0 0 0 0 0 0 0 0 0 0 0 0 0 0 0 0 0 0 0 0 0 0 0 0 0 0 0 0 0 0 0 0 0 0 0 0 0
0 0 0 0 0 0 0 0 0 0 0 0 0 0 0 0 0 0 0 0 0 0 0 0 0 0 0 0 0 0 0 0 0 0 0 0 0 0 0 0 0 0 0
0 0 0 0 0 0 0 0 0 0 0 0 0 0 0 0 0 0 0 0 0 0 0 0 0 0 0 0 0 0 0 0 0 0 0 0 0 0 0 0 0 0 0
0 0 0 0 0 0 0 0 0 0 0 0 0 0 0 0 0 0 0 0 0 0 0 0 0 0 0 0 0 0 0 0 0 0 0 0 0 0 0 0 0 0 0
Wind_Speed_500mb
31 35 35 35 34 34 32 31 30 31 35 38 40 37 37 37 39 41 41 39 38 39 40 40 43 45 36 34 34 39 34 27 24 22 19 17 15 14 7 9 11 13 12
32 34 38 39 35 34 32 30 29 33 36 36 36 38 41 44 47 50 51 48 47 46 45 46 43 42 42 32 34 32 38 32 32 28 25 20 18 17 15 14 12 11 13
34 35 38 37 35 33 33 34 34 35 36 37 38 35 39 44 47 50 51 53 52 53 53 51 50 47 45 53 52 40 33 41 40 35 27 27 25 24 20 20 20 17 17
34 33 36 39 35 33 35 35 37 40 40 43 45 45 46 49 50 51 53 52 52 55 56 57 57 55 52 50 51 53 48 41 42 44 39 34 34 31 30 28 24 22 22
34 37 39 36 33 34 35 37 40 46 50 50 53 57 56 56 55 57 56 53 44 46 51 53 61 62 59 56 54 50 50 51 48 45 47 45 41 37 35 35 32 30 28
33 31 33 33 33 35 34 38 44 46 50 55 63 68 69 68 67 63 59 43 51 55 47 49 53 58 62 61 61 58 56 56 56 54 48 47 49 47 45 40 40 36 37
27 29 30 31 32 35 36 37 43 48 54 54 63 73 78 68 68 59 49 54 72 59 60 54 54 54 57 60 65 65 64 57 59 59 60 53 48 47 46 44 39 37 35
25 29 31 32 33 37 36 35 39 49 55 54 60 68 50 77 43 71 81 67 66 70 67 68 65 62 58 56 65 66 69 71 67 64 65 63 56 51 49 48 45 43 40
26 28 30 32 34 37 39 41 44 47 53 58 51 47 39 28 92 68 69 71 68 78 82 74 72 66 66 62 64 69 70 72 78 76 67 58 62 58 55 54 52 49 46
22 25 28 32 34 38 41 44 46 49 53 62 62 57 56 66 64 82 75 72 80 73 72 75 82 82 73 74 68 67 70 77 75 79 82 83 64 65 63 59 58 55 51
25 28 32 36 39 42 44 48 51 53 55 60 61 63 63 67 66 63 100 107 90 79 77 79 80 77 77 79 78 73 66 71 77 82 84 92 87 71 68 65 64 61 59
24 28 32 37 41 45 48 51 54 56 57 60 63 66 64 58 63 65 73 94 94 100 84 79 88 85 82 82 84 81 72 66 73 76 85 83 95 96 76 70 66 68 62
24 30 35 39 44 48 52 57 60 62 63 66 67 69 70 62 60 65 71 86 88 96 92 83 78 79 83 79 86 84 77 71 66 74 71 82 85 98 101 79 78 72 73
34 37 41 45 50 54 59 63 66 67 70 71 72 71 72 73 72 71 68 73 86 89 91 90 82 77 76 78 80 79 84 79 69 67 78 69 76 91 100 101 82 79 70
39 43 49 54 57 60 64 69 74 75 77 78 79 78 75 76 75 74 75 73 69 80 90 91 87 87 76 75 81 80 79 81 87 74 70 80 68 80 94 104 100 83 78
45 50 55 59 64 67 71 76 80 82 85 86 84 84 82 79 80 79 79 77 77 75 82 86 90 92 82 83 88 86 85 78 82 84 81 73 83 69 85 93 100 108 86
53 58 62 67 72 76 78 82 84 85 88 90 89 85 86 81 84 84 81 79 79 76 75 87 82 87 87 85 84 83 82 79 77 76 78 78 79 71 68 79 90 93 99
58 62 67 72 77 80 82 84 87 85 88 91 90 87 87 83 84 82 80 81 78 75 71 82 89 87 80 80 83 77 80 74 72 67 64 72 63 64 67 66 79 85 84
61 63 70 75 80 84 88 87 86 88 89 91 90 89 88 83 86 82 78 78 75 72 70 74 85 79 82 80 77 74 76 72 66 63 59 62 65 67 60 57 69 80 81
66 70 75 81 84 88 90 93 93 95 96 94 89 87 87 83 81 78 74 71 66 62 65 68 71 71 74 76 74 76 77 68 61 56 54 55 58 60 50 46 61 73 79
70 76 82 86 91 93 91 93 93 93 93 93 89 85 80 77 73 67 59 62 63 65 66 68 70 71 71 70 75 75 73 68 64 54 52 49 48 50 51 46 53 62 69
76 83 88 92 92 91 88 85 84 85 83 82 84 80 73 73 66 60 54 50 49 54 59 62 68 66 70 69 68 68 63 62 57 50 42 40 36 49 52 48 45 51 64
84 90 92 90 89 85 84 81 76 72 74 72 69 69 71 68 67 65 58 52 48 44 43 49 55 57 63 57 55 52 50 50 51 50 45 48 40 33 31 37 44 41 43
89 91 89 84 84 83 80 75 69 70 68 66 66 66 65 67 64 58 53 52 53 48 43 41 45 47 46 45 46 45 42 43 44 43 39 43 40 36 33 35 34 34 39
88 86 84 85 84 79 73 68 63 67 70 70 63 63 59 58 56 55 52 53 55 53 44 43 42 40 35 35 36 42 39 36 38 41 38 33 34 29 26 28 24 25 31
83 83 84 80 76 75 71 63 58 63 71 68 69 65 60 52 48 44 53 54 56 52 51 47 44 40 30 30 31 31 28 35 34 31 21 20 26 25 10 14 16 17 18
Wind_Direction_500mb
359 354 353 352 353 352 346 342 336 337 337 332 332 329 329 325 323 322 323 322 320 319 318 310 289 283 298 294 297 308 295 285 280 273 275 276 272 268 275 237 230 221 211
343 344 343 342 341 342 343 339 333 332 336 334 333 323 322 320 318 317 315 312 309 307 306 308 309 303 277 290 286 283 298 289 285 280 263 260 260 260 241 236 225 206 188
327 330 331 328 327 331 336 335 333 332 335 339 337 332 325 324 322 318 313 308 304 300 300 294 295 297 298 284 275 281 275 289 285 274 268 255 251 249 244 242 229 218 207
317 317 318 319 323 326 326 328 331 330 331 333 328 324 321 319 317 315 318 319 311 299 295 290 289 286 286 289 287 269 272 273 274 276 268 260 255 254 243 241 236 229 227
314 314 314 317 319 321 323 327 327 323 323 323 319 314 315 309 308 308 309 308 308 315 304 294 287 282 280 278 280 276 267 268 262 264 264 252 248 244 241 240 239 235 231
316 317 318 324 327 331 338 330 325 323 319 320 316 312 311 309 307 307 307 307 312 313 306 308 304 293 280 279 276 274 267 262 262 260 256 256 252 244 242 243 236 236 233
335 338 338 334 335 331 330 327 320 317 315 319 318 318 315 320 316 321 320 305 312 311 306 306 307 298 292 284 277 273 270 263 258 257 259 247 245 245 241 236 234 233 238
316 323 324 327 327 322 322 319 314 314 314 321 320 321 320 314 318 308 308 310 305 309 306 305 302 297 292 289 281 278 270 262 255 250 256 253 239 241 241 237 233 228 222
326 325 329 330 328 323 323 320 318 316 313 315 317 309 318 302 316 318 305 305 308 304 304 305 302 297 296 291 279 275 278 271 259 254 244 255 247 241 235 234 234 231 229
332 330 330 329 328 325 324 321 319 315 311 308 308 306 299 302 305 312 308 301 301 299 297 297 295 295 293 293 289 280 278 271 268 259 248 240 251 248 237 233 232 231 228
329 333 334 335 333 330 328 324 322 318 314 309 307 303 299 298 294 285 293 303 300 298 295 296 295 295 293 289 287 286 281 274 274 266 255 247 239 246 243 234 234 230 228
344 342 343 341 339 336 332 329 324 321 318 312 309 306 300 292 291 291 287 292 296 301 300 299 299 296 293 292 295 291 286 278 272 273 267 257 245 236 244 240 237 233 230
350 346 341 338 336 333 329 324 321 320 317 313 311 309 306 298 291 289 291 292 295 297 299 299 296 297 297 293 294 295 295 288 279 269 273 270 257 241 233 237 234 232 233
342 337 333 332 330 327 323 319 316 315 313 312 311 309 309 309 307 302 288 285 290 290 293 292 295 294 293 293 292 291 290 297 289 280 270 273 263 249 238 232 233 235 231
330 329 328 327 325 321 318 315 313 312 310 309 308 307 307 307 307 304 298 291 283 290 291 292 294 297 293 293 294 291 288 292 295 290 281 270 271 253 246 238 230 231 232
325 325 325 322 320 319 318 314 312 311 309 309 308 308 308 307 303 301 299 297 290 281 281 286 288 292 295 291 291 290 291 294 280 293 282 281 269 265 247 240 239 233 229
325 325 323 321 321 319 318 314 312 309 307 305 306 306 305 306 302 301 300 298 294 288 283 287 286 290 293 294 296 292 290 289 288 289 290 284 273 271 261 245 241 234 232
323 323 321 320 319 318 317 316 313 311 308 307 308 307 306 305 302 302 302 299 296 292 285 287 289 292 295 298 301 299 299 298 294 292 292 289 269 279 271 254 240 237 232
321 320 320 320 320 320 318 317 314 312 310 308 308 307 306 307 305 305 304 301 298 294 291 289 289 293 298 302 301 301 302 302 300 300 294 287 276 278 266 251 238 233 232
320 321 320 320 320 319 318 316 314 312 310 310 308 307 309 309 308 309 308 303 297 293 294 292 292 295 297 302 303 304 307 309 307 305 296 284 279 273 262 256 241 235 233
321 320 320 321 321 321 322 320 317 315 312 311 310 312 313 312 310 310 307 302 297 295 295 295 297 297 298 302 303 308 307 308 307 309 305 292 281 268 269 257 239 234 232
318 321 323 324 325 325 325 324 323 318 316 315 317 316 317 318 321 319 312 302 295 292 291 292 292 295 296 300 303 305 307 305 302 313 312 309 299 277 268 266 246 237 229
322 325 328 329 329 331 331 331 327 322 321 324 326 326 324 325 326 323 321 320 311 301 296 298 297 297 299 303 302 301 301 302 304 307 306 300 299 291 286 266 259 248 247
327 329 330 332 332 334 335 334 331 327 328 330 329 328 326 324 330 328 325 320 318 316 312 307 308 311 308 307 303 297 298 301 302 298 298 292 299 296 293 285 273 263 256
329 330 332 333 335 336 338 339 335 335 332 332 336 338 332 326 328 332 324 319 317 317 319 313 310 310 304 305 307 302 292 293 298 297 297 293 291 300 301 297 286 271 248
330 332 332 336 337 339 344 340 337 332 329 332 335 335 336 332 329 333 330 320 310 313 314 318 316 319 311 322 325 317 288 282 286 294 312 282 294 301 305 307 272 260 228
Wind_Speed_850mb
31 35 35 35 34 34 32 31 30 31 35 38 40 37 37 37 39 41 41 39 38 39 40 40 43 45 36 34 34 39 34 27 24 22 19 17 15 14 7 9 11 13 12
32 34 38 39 35 34 32 30 29 33 36 36 36 38 41 44 47 50 51 48 47 46 45 46 43 42 42 32 34 32 38 32 32 28 25 20 18 17 15 14 12 11 13
34 35 38 37 35 33 33 34 34 35 36 37 38 35 39 44 47 50 51 53 52 53 53 51 50 47 45 53 52 40 33 41 40 35 27 27 25 24 20 20 20 17 17
34 33 36 39 35 33 35 35 37 40 40 43 45 45 46 49 50 51 53 52 52 55 56 57 57 55 52 50 51 53 48 41 42 44 39 34 34 31 30 28 24 22 22
34 37 39 36 33 34 35 37 40 46 50 50 53 57 56 56 55 57 56 53 44 46 51 53 61 62 59 56 54 50 50 51 48 45 47 45 41 37 35 35 32 30 28
33 31 33 33 33 35 34 38 44 46 50 55 63 68 69 68 67 63 59 43 51 55 47 49 53 58 62 61 61 58 56 56 56 54 48 47 49 47 45 40 40 36 37
27 29 30 31 32 35 36 37 43 48 54 54 63 73 78 68 68 59 49 54 72 59 60 54 54 54 57 60 65 65 64 57 59 59 60 53 48 47 46 44 39 37 35
25 29 31 32 33 37 36 35 39 49 55 54 60 68 50 77 43 71 81 67 66 70 67 68 65 62 58 56 65 66 69 71 67 64 65 63 56 51 49 48 45 43 40
26 28 30 32 34 37 39 41 44 47 53 58 51 47 39 28 92 68 69 71 68 78 82 74 72 66 66 62 64 69 70 72 78 76 67 58 62 58 55 54 52 49 46
22 25 28 32 34 38 41 44 46 49 53 62 62 57 56 66 64 82 75 72 80 73 72 75 82 82 73 74 68 67 70 77 75 79 82 83 64 65 63 59 58 55 51
25 28 32 36 39 42 44 48 51 53 55 60 61 63 63 67 66 63 100 107 90 79 77 79 80 77 77 79 78 73 66 71 77 82 84 92 87 71 68 65 64 61 59
24 28 32 37 41 45 48 51 54 56 57 60 63 66 64 58 63 65 73 94 94 100 84 79 88 85 82 82 84 81 72 66 73 76 85 83 95 96 76 70 66 68 62
24 30 35 39 44 48 52 57 60 62 63 66 67 69 70 62 60 65 71 86 88 96 92 83 78 79 83 79 86 84 77 71 66 74 71 82 85 98 101 79 78 72 73
34 37 41 45 50 54 59 63 66 67 70 71 72 71 72 73 72 71 68 73 86 89 91 90 82 77 76 78 80 79 84 79 69 67 78 69 76 91 100 101 82 79 70
39 43 49 54 57 60 64 69 74 75 77 78 79 78 75 76 75 74 75 73 69 80 90 91 87 87 76 75 81 80 79 81 87 74 70 80 68 80 94 104 100 83 78
45 50 55 59 64 67 71 76 80 82 85 86 84 84 82 79 80 79 79 77 77 75 82 86 90 92 82 83 88 86 85 78 82 84 81 73 83 69 85 93 100 108 86
53 58 62 67 72 76 78 82 84 85 88 90 89 85 86 81 84 84 81 79 79 76 75 87 82 87 87 85 84 83 82 79 77 76 78 78 79 71 68 79 90 93 99
58 62 67 72 77 80 82 84 87 85 88 91 90 87 87 83 84 82 80 81 78 75 71 82 89 87 80 80 83 77 80 74 72 67 64 72 63 64 67 66 79 85 84
61 63 70 75 80 84 88 87 86 88 89 91 90 89 88 83 86 82 78 78 75 72 70 74 85 79 82 80 77 74 76 72 66 63 59 62 65 67 60 57 69 80 81
66 70 75 81 84 88 90 93 93 95 96 94 89 87 87 83 81 78 74 71 66 62 65 68 71 71 74 76 74 76 77 68 61 56 54 55 58 60 50 46 61 73 79
70 76 82 86 91 93 91 93 93 93 93 93 89 85 80 77 73 67 59 62 63 65 66 68 70 71 71 70 75 75 73 68 64 54 52 49 48 50 51 46 53 62 69
76 83 88 92 92 91 88 85 84 85 83 82 84 80 73 73 66 60 54 50 49 54 59 62 68 66 70 69 68 68 63 62 57 50 42 40 36 49 52 48 45 51 64
84 90 92 90 89 85 84 81 76 72 74 72 69 69 71 68 67 65 58 52 48 44 43 49 55 57 63 57 55 52 50 50 51 50 45 48 40 33 31 37 44 41 43
89 91 89 84 84 83 80 75 69 70 68 66 66 66 65 67 64 58 53 52 53 48 43 41 45 47 46 45 46 45 42 43 44 43 39 43 40 36 33 35 34 34 39
88 86 84 85 84 79 73 68 63 67 70 70 63 63 59 58 56 55 52 53 55 53 44 43 42 40 35 35 36 42 39 36 38 41 38 33 34 29 26 28 24 25 31
83 83 84 80 76 75 71 63 58 63 71 68 69 65 60 52 48 44 53 54 56 52 51 47 44 40 30 30 31 31 28 35 34 31 21 20 26 25 10 14 16 17 18
Wind_Direction_850mb
359 354 353 352 353 352 346 342 336 337 337 332 332 329 329 325 323 322 323 322 320 319 318 310 289 283 298 294 297 308 295 285 280 273 275 276 272 268 275 237 230 221 211
343 344 343 342 341 342 343 339 333 332 336 334 333 323 322 320 318 317 315 312 309 307 306 308 309 303 277 290 286 283 298 289 285 280 263 260 260 260 241 236 225 206 188
327 330 331 328 327 331 336 335 333 332 335 339 337 332 325 324 322 318 313 308 304 300 300 294 295 297 298 284 275 281 275 289 285 274 268 255 251 249 244 242 229 218 207
317 317 318 319 323 326 326 328 331 330 331 333 328 324 321 319 317 315 318 319 311 299 295 290 289 286 286 289 287 269 272 273 274 276 268 260 255 254 243 241 236 229 227
314 314 314 317 319 321 323 327 327 323 323 323 319 314 315 309 308 308 309 308 308 315 304 294 287 282 280 278 280 276 267 268 262 264 264 252 248 244 241 240 239 235 231
316 317 318 324 327 331 338 330 325 323 319 320 316 312 311 309 307 307 307 307 312 313 306 308 304 293 280 279 276 274 267 262 262 260 256 256 252 244 242 243 236 236 233
335 338 338 334 335 331 330 327 320 317 315 319 318 318 315 320 316 321 320 305 312 311 306 306 307 298 292 284 277 273 270 263 258 257 259 247 245 245 241 236 234 233 238
316 323 324 327 327 322 322 319 314 314 314 321 320 321 320 314 318 308 308 310 305 309 306 305 302 297 292 289 281 278 270 262 255 250 256 253 239 241 241 237 233 228 222
326 325 329 330 328 323 323 320 318 316 313 315 317 309 318 302 316 318 305 305 308 304 304 305 302 297 296 291 279 275 278 271 259 254 244 255 247 241 235 234 234 231 229
332 330 330 329 328 325 324 321 319 315 311 308 308 306 299 302 305 312 308 301 301 299 297 297 295 295 293 293 289 280 278 271 268 259 248 240 251 248 237 233 232 231 228
329 333 334 335 333 330 328 324 322 318 314 309 307 303 299 298 294 285 293 303 300 298 295 296 295 295 293 289 287 286 281 274 274 266 255 247 239 246 243 234 234 230 228
344 342 343 341 339 336 332 329 324 321 318 312 309 306 300 292 291 291 287 292 296 301 300 299 299 296 293 292 295 291 286 278 272 273 267 257 245 236 244 240 237 233 230
350 346 341 338 336 333 329 324 321 320 317 313 311 309 306 298 291 289 291 292 295 297 299 299 296 297 297 293 294 295 295 288 279 269 273 270 257 241 233 237 234 232 233
342 337 333 332 330 327 323 319 316 315 313 312 311 309 309 309 307 302 288 285 290 290 293 292 295 294 293 293 292 291 290 297 289 280 270 273 263 249 238 232 233 235 231
330 329 328 327 325 321 318 315 313 312 310 309 308 307 307 307 307 304 298 291 283 290 291 292 294 297 293 293 294 291 288 292 295 290 281 270 271 253 246 238 230 231 232
325 325 325 322 320 319 318 314 312 311 309 309 308 308 308 307 303 301 299 297 290 281 281 286 288 292 295 291 291 290 291 294 280 293 282 281 269 265 247 240 239 233 229
325 325 323 321 321 319 318 314 312 309 307 305 306 306 305 306 302 301 300 298 294 288 283 287 286 290 293 294 296 292 290 289 288 289 290 284 273 271 261 245 241 234 232
323 323 321 320 319 318 317 316 313 311 308 307 308 307 306 305 302 302 302 299 296 292 285 287 289 292 295 298 301 299 299 298 294 292 292 289 269 279 271 254 240 237 232
321 320 320 320 320 320 318 317 314 312 310 308 308 307 306 307 305 305 304 301 298 294 291 289 289 293 298 302 301 301 302 302 300 300 294 287 276 278 266 251 238 233 232
320 321 320 320 320 319 318 316 314 312 310 310 308 307 309 309 308 309 308 303 297 293 294 292 292 295 297 302 303 304 307 309 307 305 296 284 279 273 262 256 241 235 233
321 320 320 321 321 321 322 320 317 315 312 311 310 312 313 312 310 310 307 302 297 295 295 295 297 297 298 302 303 308 307 308 307 309 305 292 281 268 269 257 239 234 232
318 321 323 324 325 325 325 324 323 318 316 315 317 316 317 318 321 319 312 302 295 292 291 292 292 295 296 300 303 305 307 305 302 313 312 309 299 277 268 266 246 237 229
322 325 328 329 329 331 331 331 327 322 321 324 326 326 324 325 326 323 321 320 311 301 296 298 297 297 299 303 302 301 301 302 304 307 306 300 299 291 286 266 259 248 247
327 329 330 332 332 334 335 334 331 327 328 330 329 328 326 324 330 328 325 320 318 316 312 307 308 311 308 307 303 297 298 301 302 298 298 292 299 296 293 285 273 263 256
329 330 332 333 335 336 338 339 335 335 332 332 336 338 332 326 328 332 324 319 317 317 319 313 310 310 304 305 307 302 292 293 298 297 297 293 291 300 301 297 286 271 248
330 332 332 336 337 339 344 340 337 332 329 332 335 335 336 332 329 333 330 320 310 313 314 318 316 319 311 322 325 317 288 282 286 294 312 282 294 301 305 307 272 260 228